| time (UTC) | temp F | wind direction | speed knots | gust knots | rain 1hr in | rain 24hr in | rain mn in | humidity % | barometer mb |
| 20260905222032 | 78 | 68 | 4.3 | 6.1 | 0.00 | 0.00 | 0.00 | 83 | 1012.1 |
| 20260905221503 | 78 | 68 | 4.3 | 6.1 | 0.00 | 0.00 | 0.00 | 83 | 1012.1 |
| 20260905221002 | 78 | 68 | 3.5 | 4.3 | 0.00 | 0.00 | 0.00 | 83 | 1011.8 |
| 20260905220503 | 79 | 68 | 1.7 | 1.7 | 0.00 | 0.00 | 0.00 | 82 | 1012.1 |
| 20260905220003 | 79 | 68 | 2.6 | 2.6 | 0.00 | 0.00 | 0.00 | 81 | 1012.1 |
| 20260905215502 | 79 | 45 | 3.5 | 4.3 | 0.00 | 0.00 | 0.00 | 81 | 1011.8 |
| 20260905215003 | 80 | 45 | 2.6 | 3.5 | 0.00 | 0.00 | 0.00 | 80 | 1011.8 |
| 20260905214502 | 80 | 23 | 3.5 | 4.3 | 0.00 | 0.00 | 0.00 | 79 | 1012.1 |
| 20260905214003 | 80 | 23 | 2.6 | 4.3 | 0.00 | 0.00 | 0.00 | 79 | 1012.1 |
| 20260905213502 | 80 | 23 | 3.5 | 5.2 | 0.00 | 0.00 | 0.00 | 78 | 1011.8 |
| 20260905213003 | 80 | 23 | 1.7 | 2.6 | 0.00 | 0.00 | 0.00 | 78 | 1011.8 |
| 20260905212502 | 80 | 68 | 2.6 | 3.5 | 0.00 | 0.00 | 0.00 | 80 | 1012.1 |
| 20260905212003 | 80 | 23 | 4.3 | 5.2 | 0.00 | 0.00 | 0.00 | 79 | 1011.8 |
| 20260905211503 | 80 | 0 | 3.5 | 4.3 | 0.00 | 0.00 | 0.00 | 79 | 1012.1 |
| 20260905211002 | 80 | 68 | 2.6 | 3.5 | 0.00 | 0.00 | 0.00 | 78 | 1012.1 |
| 20260905210533 | 80 | 23 | 3.5 | 4.3 | 0.00 | 0.00 | 0.00 | 79 | 1012.1 |
| 20260905210003 | 81 | 0 | 2.6 | 4.3 | 0.00 | 0.00 | 0.00 | 78 | 1012.1 |
| 20260905205503 | 81 | 45 | 2.6 | 2.6 | 0.00 | 0.00 | 0.00 | 76 | 1012.5 |
| 20260905205034 | 82 | 0 | 2.6 | 4.3 | 0.00 | 0.00 | 0.00 | 74 | 1012.5 |
| 20260905204503 | 82 | 315 | 0.9 | 1.7 | 0.00 | 0.00 | 0.00 | 75 | 1012.8 |
| 20260905204003 | 82 | 0 | 2.6 | 3.5 | 0.00 | 0.00 | 0.00 | 76 | 1012.5 |
| 20260905203503 | 82 | 0 | 3.5 | 4.3 | 0.00 | 0.00 | 0.00 | 75 | 1012.5 |
| 20260905203003 | 83 | 338 | 0.0 | 0.9 | 0.00 | 0.00 | 0.00 | 72 | 1012.5 |
| 20260905202533 | 82 | 23 | 1.7 | 2.6 | 0.00 | 0.00 | 0.00 | 75 | 1012.8 |
| 20260905202033 | 81 | 23 | 1.7 | 2.6 | 0.00 | 0.00 | 0.00 | 74 | 1012.5 |
| 20260905201533 | 82 | 293 | 0.9 | 1.7 | 0.00 | 0.00 | 0.00 | 77 | 1012.5 |
| 20260905201002 | 81 | 45 | 2.6 | 5.2 | 0.00 | 0.00 | 0.00 | 76 | 1012.5 |
| 20260905200503 | 81 | 23 | 2.6 | 2.6 | 0.00 | 0.00 | 0.00 | 74 | 1012.5 |
| 20260905200003 | 81 | 23 | 3.5 | 4.3 | 0.00 | 0.00 | 0.00 | 76 | 1012.5 |
| 20260905195503 | 81 | 0 | 3.5 | 4.3 | 0.00 | 0.00 | 0.00 | 75 | 1012.8 |
| 20260905195004 | 85 | 90 | 2.6 | 4.3 | 0.00 | 0.00 | 0.00 | 69 | 1012.8 |
| 20260905194532 | 83 | 0 | 0.9 | 1.7 | 0.00 | 0.00 | 0.00 | 73 | 1012.5 |
| 20260905194003 | 81 | 23 | 3.5 | 4.3 | 0.00 | 0.00 | 0.00 | 75 | 1012.8 |
| 20260905193502 | 80 | 45 | 1.7 | 1.7 | 0.00 | 0.00 | 0.00 | 78 | 1012.8 |
| 20260905193003 | 81 | 23 | 3.5 | 4.3 | 0.00 | 0.00 | 0.00 | 78 | 1012.5 |
| 20260905192503 | 81 | 23 | 3.5 | 5.2 | 0.00 | 0.00 | 0.00 | 76 | 1012.8 |
| 20260905192002 | 84 | 0 | 2.6 | 3.5 | 0.00 | 0.00 | 0.00 | 72 | 1012.8 |
| 20260905191503 | 82 | 293 | 0.0 | 0.9 | 0.00 | 0.00 | 0.00 | 74 | 1012.8 |
| 20260905191002 | 82 | 23 | 3.5 | 4.3 | 0.00 | 0.00 | 0.00 | 73 | 1012.8 |
| 20260905190503 | 81 | 338 | 4.3 | 5.2 | 0.00 | 0.00 | 0.00 | 76 | 1013.2 |
| 20260905190033 | 80 | 23 | 1.7 | 1.7 | 0.00 | 0.00 | 0.00 | 78 | 1012.8 |
| 20260905185502 | 80 | 23 | 4.3 | 5.2 | 0.00 | 0.00 | 0.00 | 80 | 1012.8 |
| 20260905185003 | 80 | 23 | 2.6 | 4.3 | 0.00 | 0.00 | 0.00 | 80 | 1013.2 |
| 20260905184503 | 80 | 23 | 1.7 | 1.7 | 0.00 | 0.00 | 0.00 | 78 | 1012.8 |
| 20260905184002 | 80 | 293 | 0.0 | 0.9 | 0.00 | 0.00 | 0.00 | 79 | 1012.8 |
| 20260905183503 | 79 | 158 | 1.7 | 1.7 | 0.00 | 0.00 | 0.00 | 82 | 1013.2 |
| 20260905183003 | 80 | 23 | 2.6 | 3.5 | 0.00 | 0.00 | 0.00 | 81 | 1013.2 |
| 20260905182533 | 81 | 315 | 0.0 | 0.9 | 0.00 | 0.00 | 0.00 | 81 | 1013.5 |
| 20260905182003 | 79 | 0 | 0.9 | 1.7 | 0.00 | 0.00 | 0.00 | 85 | 1013.2 |
| 20260905181533 | 78 | 315 | 0.9 | 1.7 | 0.00 | 0.00 | 0.00 | 87 | 1013.5 |
| 20260905181002 | 76 | 23 | 2.6 | 3.5 | 0.00 | 0.00 | 0.00 | 89 | 1013.5 |
| 20260905180503 | 76 | 23 | 2.6 | 3.5 | 0.00 | 0.00 | 0.00 | 89 | 1013.2 |
| 20260905180033 | 78 | 135 | 0.0 | 0.0 | 0.00 | 0.00 | 0.00 | 88 | 1013.5 |